Time_in_sec,gx,gy,gz
1323444974.60054445,0.03041284,-0.00438499,-0.99952780
1323444974.64967775,0.03043887,-0.00408874,-0.99952827
1323444974.69320893,0.03047599,-0.00394370,-0.99952772
1323444974.74965286,0.03038104,-0.00404603,-0.99953020
1323444974.80104947,0.03062793,-0.00393175,-0.99952312
1323444974.85249472,0.03077524,-0.00383300,-0.99951898
1323444974.90188980,0.03094961,-0.00375397,-0.99951390
1323444974.94987988,0.03097550,-0.00364864,-0.99951348
1323444975.00175834,0.03118835,-0.00371602,-0.99950662
1323444975.05266571,0.03081433,-0.00333192,-0.99951957
1323444975.10454559,0.03093777,-0.00302049,-0.99951675
1323444975.14961243,0.03103464,-0.00301362,-0.99951377
1323444975.19304013,0.03104008,-0.00285196,-0.99951407
1323444975.25253892,0.03095276,-0.00295649,-0.99951648
1323444975.30170059,0.03066879,-0.00290467,-0.99952538
1323444975.34976983,0.03068086,-0.00287295,-0.99952510
1323444975.40067029,0.03069987,-0.00272545,-0.99952493
1323444975.45368433,0.03063087,-0.00261289,-0.99952735
1323444975.50176048,0.03062369,-0.00284136,-0.99952695
1323444975.54865360,0.03047569,-0.00286389,-0.99953141
1323444975.60164237,0.03043293,-0.00273782,-0.99953306
1323444975.65257812,0.03048169,-0.00271008,-0.99953165
1323444975.69256639,0.03031521,-0.00262973,-0.99953693
1323444975.74953103,0.03019176,-0.00276275,-0.99954031
1323444975.80053329,0.03034778,-0.00326886,-0.99953405
1323444975.84864378,0.03046540,-0.00344830,-0.99952987
1323444975.90054011,0.03031049,-0.00338577,-0.99953480
1323444975.94961596,0.03017815,-0.00335551,-0.99953890
1323444976.00160456,0.03020978,-0.00363349,-0.99953698
1323444976.05251598,0.03003911,-0.00362955,-0.99954213
1323444976.10163426,0.03014641,-0.00334575,-0.99953989
1323444976.15026116,0.03010163,-0.00320171,-0.99954172
1323444976.20051837,0.03011999,-0.00317484,-0.99954125
1323444976.24964356,0.02979178,-0.00320516,-0.99955099
1323444976.30052209,0.02985610,-0.00290136,-0.99955000
1323444976.34951472,0.03005146,-0.00299156,-0.99954388
1323444976.40166569,0.03009909,-0.00299293,-0.99954244
1323444976.44839478,0.03021335,-0.00321646,-0.99953830
1323444976.50152230,0.03022278,-0.00337589,-0.99953749
1323444976.55032396,0.03030177,-0.00343927,-0.99953488
1323444976.60164094,0.03021843,-0.00345021,-0.99953736
1323444976.64864111,0.03004105,-0.00347709,-0.99954262
1323444976.69819951,0.02997775,-0.00348525,-0.99954449
1323444976.74854827,0.02992446,-0.00359803,-0.99954569
1323444976.80054331,0.02985711,-0.00370723,-0.99954730
1323444976.84852743,0.02988808,-0.00382800,-0.99954592
1323444976.90169048,0.03007241,-0.00368631,-0.99954093
1323444976.94853044,0.03009185,-0.00380189,-0.99953991
1323444977.00155544,0.03010680,-0.00363658,-0.99954007
1323444977.04866052,0.03004801,-0.00323326,-0.99954323
1323444977.10055089,0.03005914,-0.00339671,-0.99954235
1323444977.14965940,0.02990231,-0.00326661,-0.99954749
1323444977.20066071,0.02983965,-0.00336119,-0.99954905
1323444977.24851704,0.03000832,-0.00345384,-0.99954368
1323444977.29809451,0.02956361,-0.00301255,-0.99955836
1323444977.34975958,0.02951635,-0.00307285,-0.99955957
1323444977.40863156,0.02949705,-0.00309568,-0.99956007
1323444977.45252132,0.02940514,-0.00306649,-0.99956287
1323444977.50246572,0.02934453,-0.00309536,-0.99956456
1323444977.55285740,0.02913968,-0.00283635,-0.99957133
1323444977.60128331,0.02912667,-0.00294076,-0.99957140
1323444977.65248919,0.02912575,-0.00296969,-0.99957134
1323444977.70197439,0.02919938,-0.00293188,-0.99956931
1323444977.74966741,0.02902865,-0.00278962,-0.99957469
1323444977.80052543,0.02896794,-0.00267205,-0.99957677
1323444977.84962630,0.02874559,-0.00266068,-0.99958322
1323444977.89877939,0.02868568,-0.00254595,-0.99958524
1323444977.94980216,0.02866057,-0.00255504,-0.99958594
1323444978.00157976,0.02850538,-0.00266806,-0.99959008
1323444978.05250812,0.02828717,-0.00213626,-0.99959756
1323444978.10165238,0.02826091,-0.00200041,-0.99959858
1323444978.14979506,0.02833689,-0.00193453,-0.99959656
1323444978.20181417,0.02828713,-0.00205514,-0.99959773
1323444978.24966335,0.02811628,-0.00202937,-0.99960260
1323444978.30055547,0.02771105,-0.00187154,-0.99961422
1323444978.34969783,0.02772379,-0.00176339,-0.99961407
1323444978.40143824,0.02770396,-0.00168585,-0.99961475
1323444978.43882966,0.02766358,-0.00162613,-0.99961597
1323444978.50069380,0.02742302,-0.00150226,-0.99962279
1323444978.54965162,0.02729968,-0.00087031,-0.99962692
1323444978.60164261,0.02711922,-0.00095097,-0.99963175
1323444978.64967179,0.02705279,-0.00094874,-0.99963356
1323444978.70462465,0.02682419,-0.00105729,-0.99963961
1323444978.74864626,0.02683226,-0.00078145,-0.99963964
1323444978.80142832,0.02673286,-0.00061825,-0.99964242
1323444978.84854221,0.02678636,-0.00053961,-0.99964104
1323444978.90163517,0.02663833,-0.00060581,-0.99964495
1323444978.94962716,0.02672059,-0.00045669,-0.99964284
1323444979.00050783,0.02690009,-0.00018757,-0.99963811
1323444979.04851913,0.02673451,0.00010508,-0.99964256
1323444979.10458469,0.02663093,0.00016540,-0.99964532
1323444979.14849710,0.02681896,0.00017282,-0.99964029
1323444979.18851018,0.02697598,0.00034629,-0.99963602
1323444979.24853134,0.02705548,0.00027484,-0.99963390
1323444979.30122042,0.02709319,0.00078523,-0.99963260
1323444979.34852195,0.02711414,0.00100514,-0.99963184
1323444979.40163922,0.02707886,0.00096946,-0.99963283
1323444979.44968319,0.02690108,0.00128217,-0.99963728
1323444979.49866009,0.02672216,0.00137278,-0.99964196
1323444979.54866505,0.02669234,0.00143795,-0.99964266
1323444979.60221767,0.02669766,0.00171109,-0.99964209
1323444979.64852524,0.02664620,0.00188133,-0.99964316
1323444979.70126438,0.02680134,0.00185567,-0.99963906
1323444979.74852443,0.02714374,0.00175205,-0.99963001
1323444979.80162048,0.02685897,0.00170548,-0.99963778
1323444979.84861207,0.02657988,0.00138544,-0.99964573
1323444979.89852381,0.02667512,0.00151891,-0.99964300
1323444979.94882178,0.02663734,0.00169925,-0.99964372
1323444980.00156021,0.02676999,0.00190648,-0.99963980
1323444980.04851604,0.02661147,0.00141350,-0.99964485
1323444980.10146689,0.02660866,0.00160982,-0.99964463
1323444980.15008807,0.02669484,0.00144483,-0.99964259
1323444980.20050001,0.02664129,0.00145220,-0.99964400
1323444980.24947023,0.02679585,0.00128866,-0.99964010
1323444980.30054045,0.02655193,0.00127765,-0.99964662
1323444980.34951591,0.02645881,0.00133548,-0.99964901
1323444980.40054464,0.02657374,0.00144782,-0.99964581
1323444980.45250797,0.02669363,0.00120740,-0.99964293
1323444980.50053716,0.02669802,0.00134554,-0.99964264
1323444980.54976964,0.02642788,0.00142374,-0.99964971
1323444980.60053706,0.02644159,0.00151221,-0.99964922
1323444980.64970541,0.02686370,0.00148971,-0.99963800
1323444980.70051432,0.02668897,0.00155111,-0.99964258
1323444980.75296116,0.02670552,0.00168095,-0.99964193
1323444980.80103588,0.02659599,0.00156228,-0.99964504
1323444980.85252714,0.02639996,0.00154047,-0.99965027
1323444980.90063977,0.02649179,0.00156931,-0.99964780
1323444980.95249391,0.02636901,0.00165122,-0.99965091
1323444981.00980139,0.02647457,0.00158276,-0.99964823
1323444981.04952049,0.02662646,0.00157391,-0.99964421
1323444981.10051918,0.02668495,0.00170053,-0.99964245
1323444981.14951515,0.02665170,0.00166919,-0.99964339
1323444981.20053101,0.02653301,0.00188663,-0.99964616
1323444981.25251555,0.02671904,0.00214077,-0.99964069
1323444981.30050039,0.02650512,0.00226633,-0.99964611
1323444981.34967327,0.02658965,0.00220903,-0.99964399
1323444981.40064454,0.02652763,0.00211993,-0.99964583
1323444981.44867015,0.02641373,0.00188851,-0.99964931
1323444981.50168872,0.02617814,0.00205262,-0.99965519
1323444981.54865861,0.02578320,0.00216171,-0.99966522
1323444981.60064578,0.02597981,0.00227614,-0.99965988
1323444981.64860344,0.02583236,0.00244175,-0.99966331
1323444981.70056677,0.02563728,0.00257304,-0.99966800
1323444981.74954867,0.02568538,0.00268084,-0.99966648
1323444981.80110240,0.02556247,0.00247008,-0.99967018
1323444981.84865618,0.02570829,0.00237282,-0.99966667
1323444981.90055394,0.02549826,0.00267245,-0.99967129
1323444981.95075488,0.02532025,0.00284436,-0.99967534
1323444982.00053430,0.02542126,0.00287916,-0.99967268
1323444982.04863262,0.02569587,0.00264513,-0.99966631
1323444982.10156226,0.02567756,0.00264151,-0.99966679
1323444982.15038967,0.02566106,0.00258676,-0.99966735
1323444982.20054269,0.02584500,0.00252060,-0.99966278
1323444982.24855208,0.02582101,0.00255488,-0.99966332
1323444982.30166650,0.02578237,0.00172944,-0.99966608
1323444982.34959269,0.02568384,0.00157918,-0.99966887
1323444982.40166354,0.02591686,0.00146006,-0.99966304
1323444982.43994212,0.02602095,0.00164058,-0.99966005
1323444982.50164652,0.02585128,0.00163195,-0.99966447
1323444982.54850268,0.02594533,0.00142717,-0.99966234
1323444982.60166168,0.02574073,0.00145327,-0.99966760
1323444982.64964056,0.02562909,0.00171864,-0.99967004
1323444982.69023442,0.02566871,0.00166505,-0.99966912
1323444982.74966121,0.02544169,0.00170853,-0.99967485
1323444982.80050206,0.02501047,0.00171232,-0.99968572
1323444982.84851575,0.02492695,0.00165297,-0.99968791
1323444982.90052652,0.02492009,0.00161683,-0.99968814
1323444982.95011663,0.02500153,0.00156940,-0.99968618
1323444982.99814105,0.02492966,0.00159775,-0.99968793
1323444983.04864740,0.02464017,0.00166945,-0.99969499
1323444983.10050011,0.02475551,0.00172485,-0.99969205
1323444983.14963889,0.02462281,0.00184885,-0.99969510
1323444983.20062995,0.02452073,0.00199873,-0.99969732
1323444983.24852633,0.02462066,0.00204217,-0.99969478
1323444983.30054164,0.02519820,0.00240433,-0.99967958
1323444983.34851289,0.02515327,0.00227320,-0.99968102
1323444983.40054035,0.02517245,0.00228270,-0.99968052
1323444983.45259285,0.02511577,0.00234236,-0.99968181
1323444983.50048423,0.02522082,0.00228149,-0.99967930
1323444983.55352902,0.02558819,0.00196404,-0.99967064
1323444983.60153031,0.02553625,0.00191242,-0.99967207
1323444983.65252352,0.02550904,0.00189679,-0.99967279
1323444983.70160270,0.02566406,0.00194202,-0.99966874
1323444983.74984336,0.02548149,0.00183646,-0.99967361
1323444983.80132937,0.02607206,0.00175333,-0.99965853
1323444983.85356283,0.02599007,0.00203714,-0.99966013
1323444983.90461850,0.02609749,0.00220965,-0.99965696
1323444983.95377016,0.02614765,0.00213009,-0.99965582
1323444984.00054646,0.02625590,0.00212994,-0.99965299
1323444984.05252504,0.02636708,0.00137862,-0.99965138
1323444984.10062623,0.02625795,0.00137479,-0.99965426
1323444984.14970446,0.02606926,0.00168045,-0.99965873
1323444984.20054030,0.02594988,0.00164707,-0.99966189
1323444984.25257230,0.02599331,0.00185159,-0.99966040
1323444984.30073714,0.02581698,0.00102039,-0.99966617
1323444984.34976983,0.02584966,0.00100437,-0.99966534
1323444984.40064573,0.02572494,0.00115403,-0.99966839
1323444984.45261121,0.02564914,0.00106742,-0.99967044
1323444984.50120664,0.02570119,0.00104195,-0.99966913
1323444984.54956889,0.02563591,0.00085150,-0.99967098
1323444984.60064530,0.02556710,0.00082364,-0.99967277
1323444984.64856505,0.02556580,0.00105115,-0.99967259
1323444984.70455003,0.02534478,0.00118873,-0.99967806
1323444984.74865246,0.02526619,0.00157630,-0.99967952
1323444984.80057263,0.02531296,0.00195326,-0.99967767
1323444984.84864688,0.02537731,0.00183730,-0.99967626
1323444984.90058064,0.02545603,0.00196687,-0.99967401
1323444984.94877124,0.02532646,0.00182802,-0.99967756
1323444985.00049663,0.02530885,0.00186712,-0.99967794
1323444985.04951000,0.02497729,0.00218397,-0.99968563
1323444985.09840298,0.02494071,0.00204109,-0.99968685
1323444985.14957428,0.02512284,0.00197784,-0.99968242
1323444985.18956947,0.02502541,0.00189656,-0.99968502
1323444985.24853969,0.02495886,0.00209900,-0.99968628
1323444985.30455971,0.02487623,0.00213550,-0.99968826
1323444985.35041189,0.02489284,0.00207701,-0.99968797
1323444985.40163684,0.02470519,0.00225444,-0.99969224
1323444985.44164515,0.02450884,0.00243129,-0.99969666
1323444985.50449586,0.02447592,0.00245972,-0.99969739
1323444985.54855943,0.02434704,0.00194345,-0.99970168
1323444985.60055137,0.02446738,0.00191401,-0.99969880
1323444985.65106082,0.02446552,0.00195298,-0.99969877
1323444985.68855739,0.02437958,0.00199694,-0.99970078
1323444985.75013304,0.02431425,0.00198510,-0.99970239
1323444985.80057859,0.02499610,0.00154263,-0.99968636
1323444985.84950662,0.02512686,0.00166574,-0.99968288
1323444985.90051126,0.02524469,0.00161951,-0.99967999
1323444985.94063997,0.02506084,0.00166245,-0.99968455
1323444986.00051045,0.02496657,0.00173291,-0.99968678
1323444986.04852891,0.02551175,0.00085604,-0.99967416
1323444986.10054064,0.02543108,0.00100284,-0.99967607
1323444986.15000868,0.02511339,0.00107840,-0.99968403
1323444986.19257092,0.02512924,0.00113898,-0.99968356
1323444986.24956560,0.02495516,0.00094232,-0.99968813
1323444986.30147195,0.02518737,-0.00014642,-0.99968274
1323444986.34953904,0.02504429,0.00006712,-0.99968634
1323444986.40052581,0.02514440,-0.00004142,-0.99968383
1323444986.45269275,0.02513383,-0.00003028,-0.99968410
1323444986.50052667,0.02529551,0.00002979,-0.99968002
1323444986.54966283,0.02545215,-0.00084775,-0.99967568
1323444986.60053039,0.02545603,-0.00090999,-0.99967553
1323444986.64952040,0.02526154,-0.00095591,-0.99968042
1323444986.68982816,0.02529524,-0.00077534,-0.99967972
1323444986.75252938,0.02530416,-0.00076086,-0.99967951
1323444986.80050969,0.02591040,-0.00222129,-0.99966180
1323444986.84069133,0.02597648,-0.00201277,-0.99966053
1323444986.90050435,0.02598287,-0.00194227,-0.99966050
1323444986.95278955,0.02577539,-0.00181395,-0.99966611
1323444987.00056243,0.02578278,-0.00168140,-0.99966615
1323444987.05253935,0.02574389,-0.00276738,-0.99966474
1323444987.10204530,0.02589624,-0.00265625,-0.99966111
1323444987.14967036,0.02587562,-0.00264439,-0.99966167
1323444987.18966341,0.02588003,-0.00243490,-0.99966209
1323444987.25252390,0.02589745,-0.00246078,-0.99966158
1323444987.30055594,0.02652848,-0.00242199,-0.99964512
1323444987.34959555,0.02651329,-0.00245087,-0.99964546
1323444987.40055013,0.02650034,-0.00235483,-0.99964603
1323444987.44164824,0.02650883,-0.00215235,-0.99964626
1323444987.50049090,0.02661473,-0.00216090,-0.99964343
1323444987.54866028,0.02580863,-0.00091763,-0.99966648
1323444987.60057187,0.02567920,-0.00094053,-0.99966979
1323444987.65255308,0.02571923,-0.00099645,-0.99966871
1323444987.69260836,0.02548103,-0.00089473,-0.99967491
1323444987.74962401,0.02569671,-0.00102311,-0.99966926
1323444987.80049443,0.02636197,0.00018662,-0.99965245
1323444987.84954047,0.02628949,0.00022798,-0.99965435
1323444987.90049553,0.02606424,0.00020237,-0.99966025
1323444987.94051647,0.02615762,0.00040564,-0.99965775
1323444987.99856305,0.02606766,0.00038399,-0.99966011
1323444988.04854584,0.02587305,0.00031684,-0.99966519
1323444988.10058451,0.02578814,0.00043528,-0.99966734
1323444988.14961815,0.02568055,0.00056666,-0.99967004
1323444988.20054412,0.02593226,0.00049108,-0.99966358
1323444988.24854612,0.02593796,0.00054558,-0.99966341
1323444988.29832244,0.02560892,0.00011993,-0.99967203
1323444988.34856224,0.02557517,0.00010450,-0.99967290
1323444988.40056014,0.02533373,0.00022283,-0.99967902
1323444988.43935442,0.02517159,0.00025597,-0.99968311
1323444988.50124478,0.02505446,0.00039920,-0.99968601
1323444988.54952574,0.02500185,0.00139588,-0.99968643
1323444988.60052204,0.02504578,0.00150451,-0.99968517
1323444988.64956307,0.02503241,0.00139552,-0.99968567
1323444988.68852043,0.02506629,0.00142747,-0.99968477
1323444988.74971056,0.02511910,0.00115836,-0.99968379
1323444988.80101418,0.02583121,0.00113527,-0.99966567
1323444988.84054470,0.02584936,0.00114238,-0.99966520
1323444988.90055919,0.02599195,0.00122602,-0.99966140
1323444988.94850445,0.02591757,0.00110274,-0.99966348
1323444989.00056839,0.02577430,0.00114521,-0.99966713
1323444989.04854560,0.02589544,0.00098412,-0.99966417
1323444989.10248446,0.02590251,0.00091841,-0.99966405
1323444989.14931536,0.02611390,0.00112046,-0.99965835
1323444989.20156145,0.02630089,0.00135616,-0.99965315
1323444989.24858665,0.02612565,0.00145325,-0.99965761
1323444989.30155087,0.02621406,0.00143057,-0.99965533
1323444989.35283589,0.02613778,0.00146845,-0.99965727
1323444989.40164876,0.02600781,0.00166413,-0.99966035
1323444989.45282865,0.02580742,0.00159566,-0.99966566
1323444989.50452566,0.02559468,0.00130534,-0.99967155
1323444989.55258632,0.02606872,0.00168671,-0.99965873
1323444989.60064292,0.02612246,0.00170232,-0.99965730
1323444989.65248823,0.02600472,0.00177323,-0.99966025
1323444989.70229912,0.02589135,0.00196663,-0.99966283
1323444989.74998021,0.02594772,0.00175157,-0.99966177
1323444989.80450249,0.02582022,0.00168050,-0.99966519
1323444989.84967279,0.02589096,0.00168818,-0.99966335
1323444989.90150976,0.02574593,0.00181846,-0.99966686
1323444989.94954658,0.02567650,0.00171905,-0.99966883
1323444990.00154281,0.02567736,0.00187712,-0.99966852
1323444990.04880595,0.02599139,0.00208101,-0.99966000
1323444990.10165691,0.02589763,0.00202655,-0.99966255
1323444990.15014338,0.02583883,0.00177277,-0.99966455
1323444990.20053124,0.02597616,0.00196017,-0.99966064
1323444990.25252771,0.02581965,0.00150480,-0.99966548
1323444990.30450082,0.02580909,0.00137715,-0.99966594
1323444990.34865761,0.02572758,0.00137135,-0.99966805
1323444990.40164042,0.02575765,0.00146465,-0.99966714
1323444990.44859719,0.02560684,0.00166263,-0.99967071
1323444990.50164318,0.02557414,0.00177811,-0.99967135
1323444990.54991007,0.02527202,0.00073019,-0.99968034
1323444990.60163474,0.02538054,0.00076994,-0.99967757
1323444990.64855647,0.02547725,0.00078099,-0.99967510
1323444990.68850327,0.02554134,0.00074759,-0.99967349
1323444990.74870801,0.02578152,0.00093791,-0.99966716
1323444990.80151057,0.02480478,0.00129068,-0.99969148
1323444990.84851980,0.02481288,0.00141516,-0.99969111
1323444990.90160155,0.02480257,0.00173122,-0.99969087
1323444990.94215727,0.02496233,0.00151957,-0.99968724
1323444991.00150537,0.02499903,0.00173435,-0.99968597
1323444991.04852509,0.02488963,0.00110010,-0.99968960
1323444991.09830594,0.02499223,0.00097168,-0.99968717
1323444991.14951229,0.02504357,0.00095419,-0.99968591
1323444991.20151138,0.02489794,0.00092180,-0.99968957
1323444991.24860716,0.02507706,0.00095490,-0.99968506
1323444991.30151963,0.02487470,0.00066859,-0.99969035
1323444991.35007668,0.02459793,0.00099499,-0.99969693
1323444991.40160513,0.02458023,0.00109619,-0.99969726
1323444991.44957662,0.02464522,0.00115055,-0.99969560
1323444991.49819660,0.02498988,0.00123449,-0.99968694
1323444991.54986119,0.02478913,0.00049791,-0.99969258
1323444991.60053444,0.02467749,0.00040497,-0.99969538
1323444991.64853621,0.02460216,0.00051130,-0.99969719
1323444991.68860221,0.02470004,0.00044951,-0.99969481
1323444991.75018215,0.02459302,0.00049913,-0.99969742
1323444991.80098367,0.02424844,-0.00002861,-0.99970596
1323444991.84957409,0.02424619,0.00001036,-0.99970602
1323444991.90292764,0.02413994,-0.00015335,-0.99970858
1323444991.94957876,0.02421360,-0.00005175,-0.99970681
1323444992.00129080,0.02404542,0.00009501,-0.99971086
1323444992.04890609,0.02377938,-0.00034725,-0.99971717
1323444992.10154963,0.02372764,-0.00007905,-0.99971846
1323444992.14958477,0.02368445,-0.00006605,-0.99971948
1323444992.19264269,0.02354890,0.00003315,-0.99972269
1323444992.24968243,0.02359080,-0.00006483,-0.99972170
1323444992.30166221,0.02390690,-0.00045620,-0.99971409
1323444992.35254097,0.02381701,-0.00034791,-0.99971627
1323444992.40139031,0.02382883,-0.00043364,-0.99971596
1323444992.45253444,0.02403401,-0.00059992,-0.99971096
1323444992.51247358,0.02392969,-0.00051738,-0.99971351
1323444992.55246472,0.02429431,-0.00101779,-0.99970433
